Bangor, ME

7:57 PM EDT on September 23, 2017 (GMT -0400)
Bangor International

Weather History for KBGR - January, 2012

Change the Weather History Date:

Sunday, January 22, 2012

  Actual Average Record
Temperature  
Mean Temperature 5 °F 16 °F  
Max Temperature 21 °F 27 °F 47 °F (1957)
Min Temperature -12 °F 6 °F -29 °F (2005)
Degree Days  
Heating Degree Days 60 48  
Month to date heating degree days 978 1054  
Since 1 July heating degree days 3388 3975  
Cooling Degree Days 0 0  
Month to date cooling degree days 0 0  
Year to date cooling degree days 0 0  
Moisture  
Dew Point -3 °F    
Average Humidity 69    
Maximum Humidity 88    
Minimum Humidity 49    
Precipitation  
Precipitation 0.00 in 0.09 in 0.72 in (1958)
Month to date precipitation 0.68 2.06  
Year to date precipitation 0.68 2.06  
Snow  
Snow 0.00 in 0.60 in 6.00 in (1949)
Month to date snowfall 4.7 13.7  
Since 1 July snowfall 29.1 30.5  
Snow Depth 3.00 in    
Sea Level Pressure  
Sea Level Pressure 30.54 in    
Wind  
Wind Speed 0 mph (SE)    
Max Wind Speed 6 mph    
Max Gust Speed 7 mph    
Visibility 10 miles    
Events      
T = Trace of Precipitation, MM = Missing Value Source: NWS Daily Summary

Daily Weather History Graph

Daily Weather History Graph

Search for Another Location

Airport or City:

Trip Planner

Search our weather history database for the weather conditions in past years. The results will help you decide how hot, cold, wet, or windy it might be!

Date:

Astronomy

Jan. 22, 2012 Rise Set
Actual Time 7:04 AM EST 4:29 PM EST
Civil Twilight 6:32 AM EST 5:01 PM EST
Nautical Twilight 5:57 AM EST 5:36 PM EST
Astronomical Twilight 5:22 AM EST 6:11 PM EST
Moon 6:19 AM EST (1/22) 4:08 PM EST (1/22)
Length of Visible Light 10h 28m
Length of Day
9h 24m
Waning Crescent, 0% of the Moon is Illuminated
Jan 22
Waning Crescent
Jan 23
New
Jan 30
First Quarter
Feb 7
Full
Feb 14
Last Quarter

Hourly Weather History & Observations

Time (EST) Temp. Windchill Dew Point Humidity Pressure Visibility Wind Dir Wind Speed Gust Speed Precip Events Conditions
12:53 AM -6.0 °F - -9.0 °F 87% 30.39 in 10.0 mi Calm Calm - N/A   Clear
1:53 AM -8.0 °F - -14.1 °F 75% 30.43 in 10.0 mi Calm Calm - N/A   Clear
2:53 AM -9.0 °F - -15.0 °F 75% 30.45 in 10.0 mi Calm Calm - N/A   Clear
3:53 AM -11.0 °F - -16.1 °F 78% 30.47 in 10.0 mi Calm Calm - N/A   Clear
4:53 AM -9.9 °F - -14.1 °F 82% 30.49 in 10.0 mi Calm Calm - N/A   Clear
5:53 AM -9.4 °F - -14.8 °F 77% 30.49 in 10.0 mi Calm Calm - N/A   Clear
6:53 AM -9.0 °F - -14.1 °F 79% 30.54 in 10.0 mi Calm Calm - N/A   Partly Cloudy
7:53 AM -9.9 °F - -14.1 °F 82% 30.57 in 10.0 mi Calm Calm - N/A   Partly Cloudy
8:53 AM -0.0 °F - -4.0 °F 83% 30.61 in 7.0 mi Calm Calm - N/A   Partly Cloudy
9:53 AM 6.1 °F - -0.9 °F 73% 30.62 in 10.0 mi Calm Calm - N/A   Scattered Clouds
10:53 AM 10.4 °F - 1.4 °F 67% 30.58 in 10.0 mi Calm Calm - N/A   Partly Cloudy
11:53 AM 15.1 °F - 3.0 °F 59% 30.58 in 10.0 mi Calm Calm - N/A   Partly Cloudy
12:53 PM 18.0 °F - 3.0 °F 52% 30.57 in 10.0 mi Calm Calm - N/A   Mostly Cloudy
1:53 PM 19.9 °F - 3.9 °F 50% 30.57 in 10.0 mi Calm Calm - N/A   Mostly Cloudy
2:53 PM 19.9 °F - 3.9 °F 50% 30.57 in 10.0 mi Calm Calm - N/A   Mostly Cloudy
3:53 PM 19.0 °F 12.3 °F 5.0 °F 54% 30.56 in 10.0 mi ESE 4.6 mph - N/A   Overcast
4:53 PM 19.0 °F 13.9 °F 3.9 °F 52% 30.57 in 10.0 mi SSE 3.5 mph - N/A   Overcast
5:53 PM 12.9 °F - 3.9 °F 67% 30.57 in 10.0 mi Calm Calm - N/A   Overcast
6:53 PM 10.9 °F - 3.0 °F 70% 30.57 in 10.0 mi Calm Calm - N/A   Mostly Cloudy
7:53 PM 10.0 °F - 1.9 °F 70% 30.59 in 10.0 mi Calm Calm - N/A   Mostly Cloudy
8:53 PM 8.1 °F - 1.9 °F 76% 30.60 in 10.0 mi Calm Calm - N/A   Mostly Cloudy
9:53 PM 10.9 °F - 3.9 °F 73% 30.57 in 10.0 mi Calm Calm - N/A   Mostly Cloudy
10:53 PM 7.0 °F - 3.0 °F 84% 30.56 in 10.0 mi Calm Calm - N/A   Mostly Cloudy
11:53 PM 10.9 °F - 6.1 °F 81% 30.54 in 10.0 mi Calm Calm - N/A   Scattered Clouds